Location: Westminster
(33.3626°N, 96.4619°W)
Time: 21:16:04
(UTC+00:00)

OAO 3 Rocket - Pass Details

Date: 09 July 2022
Orbit: 627 x 681 km, 35.0° (Epoch: 14 August)

Event Time Altitude Azimuth Distance (km) Brightness Sun altitude
Rises 02:20:43 0° 208° (SSW) 2,930 6.5 -8.4°
Reaches altitude 10° 02:23:41 10° 190° (S) 2,035 5.5 -8.9°
Maximum altitude 02:26:53 18° 147° (SSE) 1,582 4.6 -9.5°
Enters shadow 02:29:33 12° 110° (ESE) 1,921 5.0 -9.9°
